Rexburg, ID

7:24 PM MDT on May 25, 2018 (GMT -0600)
Rexburg-Madison County

Weather History for KRXE - March, 2014

Change the Weather History Date:

Friday, March 7, 2014

  Actual Average Record
Temperature  
Mean Temperature 37 °F 30 °F  
Max Temperature 45 °F 41 °F 56 °F (2015)
Min Temperature 29 °F 20 °F 1 °F (2008)
Degree Days  
Heating Degree Days 28 35  
Month to date heating degree days 207 254  
Since 1 July heating degree days 6022 6227  
Cooling Degree Days 0 0  
Month to date cooling degree days 0 0  
Year to date cooling degree days 0 0  
Moisture  
Dew Point 31 °F    
Average Humidity 77    
Maximum Humidity 100    
Minimum Humidity 53    
Precipitation  
Precipitation 0.03 in 0.02 in 0.27 in (1989)
Month to date precipitation 0.29 0.19  
Year to date precipitation 1.69 1.76  
Sea Level Pressure  
Sea Level Pressure 30.10 in    
Wind  
Wind Speed 7 mph (SSW)    
Max Wind Speed 15 mph    
Max Gust Speed 19 mph    
Visibility 10 miles    
Events Rain , Snow    
T = Trace of Precipitation, MM = Missing Value Source: NWS Daily Summary

Daily Weather History Graph

Daily Weather History Graph

Search for Another Location

Airport or City:

Astronomy

Mar. 07, 2014 Rise Set
Actual Time 6:53 AM MST 6:23 PM MST
Civil Twilight 6:24 AM MST 6:52 PM MST
Nautical Twilight 5:51 AM MST 7:25 PM MST
Astronomical Twilight 5:18 AM MST 7:59 PM MST
Moon 10:37 AM MST (3/7) 12:43 AM MST (3/7)
Length of Visible Light 12h 27m
Length of Day
11h 30m
Waxing Crescent, 42% of the Moon is Illuminated
Mar 7
Waxing Crescent
Mar 8
First Quarter
Mar 16
Full
Mar 23
Last Quarter
Mar 30
New

Hourly Weather History & Observations

Time (MST) Temp. Windchill Dew Point Humidity Pressure Visibility Wind Dir Wind Speed Gust Speed Precip Events Conditions
12:53 AM 34.0 °F 25.5 °F 32.0 °F 92% 29.96 in 10.0 mi SSW 11.5 mph - N/A   Clear
1:09 AM 34.0 °F 27.2 °F 32.0 °F 92% 29.95 in 10.0 mi SSW 8.1 mph - N/A   Scattered Clouds
1:25 AM 34.0 °F 25.0 °F 32.0 °F 92% 29.96 in 10.0 mi SSW 12.7 mph - N/A   Mostly Cloudy
1:50 AM 33.8 °F 25.3 °F 32.0 °F 93% 29.97 in 10.0 mi SSW 11.5 mph - N/A   Overcast
1:53 AM 35.1 °F 26.4 °F 32.0 °F 89% 29.97 in 10.0 mi SSW 12.7 mph - N/A   Overcast
2:53 AM 35.1 °F 28.6 °F 32.0 °F 89% 29.99 in 10.0 mi South 8.1 mph - N/A   Overcast
3:53 AM 34.0 °F 28.0 °F 32.0 °F 92% 29.99 in 10.0 mi SW 6.9 mph - N/A   Overcast
4:34 AM 35.1 °F 27.9 °F 32.0 °F 89% 29.99 in 10.0 mi SW 9.2 mph - N/A   Overcast
4:41 AM 35.1 °F 29.3 °F 32.0 °F 89% 29.99 in 10.0 mi SSW 6.9 mph - N/A   Overcast
4:53 AM 35.1 °F 27.9 °F 32.0 °F 89% 30.00 in 10.0 mi SSW 9.2 mph - N/A   Overcast
5:28 AM 34.0 °F 26.6 °F 32.0 °F 92% 30.00 in 10.0 mi SSW 9.2 mph - N/A   Overcast
5:35 AM 34.0 °F 27.2 °F 32.0 °F 92% 30.01 in 10.0 mi SSW 8.1 mph - N/A   Overcast
5:53 AM 34.0 °F 28.0 °F 32.0 °F 92% 30.04 in 10.0 mi SSW 6.9 mph - N/A   Overcast
6:53 AM 34.0 °F 26.0 °F 30.9 °F 89% 30.08 in 10.0 mi WSW 10.4 mph - N/A   Overcast
7:53 AM 33.1 °F 26.1 °F 30.9 °F 92% 30.11 in 7.0 mi WSW 8.1 mph - 0.00 in Snow Light Snow
8:27 AM 32.0 °F 24.2 °F 30.9 °F 96% 30.09 in 3.0 mi SSW 9.2 mph - 0.01 in Snow Light Snow
8:53 AM 33.1 °F 23.9 °F 32.0 °F 96% 30.13 in 9.0 mi South 12.7 mph - 0.01 in   Overcast
9:35 AM 34.0 °F 25.5 °F 32.0 °F 92% 30.10 in 10.0 mi SSW 11.5 mph - N/A   Overcast
9:53 AM 35.1 °F 27.9 °F 33.1 °F 92% 30.15 in 10.0 mi SSW 9.2 mph - N/A   Overcast
10:26 AM 37.9 °F 30.5 °F 34.0 °F 86% 30.11 in 10.0 mi SSW 11.5 mph - N/A   Mostly Cloudy
10:53 AM 39.0 °F 32.3 °F 33.1 °F 79% 30.14 in 10.0 mi South 10.4 mph - N/A   Partly Cloudy
11:53 AM 41.0 °F 36.4 °F 30.0 °F 65% 30.15 in 10.0 mi Variable 6.9 mph - N/A   Clear
12:53 PM 42.1 °F 36.6 °F 28.9 °F 60% 30.14 in 10.0 mi WSW 9.2 mph - N/A   Mostly Cloudy
1:53 PM 43.0 °F 37.7 °F 28.0 °F 56% 30.13 in 10.0 mi WSW 9.2 mph - N/A   Scattered Clouds
2:53 PM 43.0 °F 39.5 °F 27.0 °F 53% 30.14 in 10.0 mi SW 5.8 mph - N/A   Overcast
3:53 PM 43.0 °F 37.2 °F 30.0 °F 60% 30.16 in 10.0 mi WSW 10.4 mph - 0.00 in Rain Light Rain
4:53 PM 39.9 °F 37.8 °F 32.0 °F 73% 30.19 in 10.0 mi Variable 3.5 mph - 0.02 in   Overcast
5:53 PM 37.9 °F 34.4 °F 33.1 °F 83% 30.21 in 10.0 mi South 4.6 mph - 0.00 in   Overcast
6:53 PM 37.0 °F 33.3 °F 32.0 °F 82% 30.22 in 10.0 mi South 4.6 mph - N/A   Mostly Cloudy
7:53 PM 35.1 °F - 30.9 °F 85% 30.25 in 10.0 mi Calm Calm - N/A   Mostly Cloudy
8:53 PM 34.0 °F - 30.0 °F 85% 30.27 in 10.0 mi Calm Calm - N/A   Clear
9:53 PM 32.0 °F 26.4 °F 28.9 °F 88% 30.29 in 9.0 mi WSW 5.8 mph - N/A   Clear
10:53 PM 28.9 °F 25.2 °F 28.0 °F 96% 30.31 in 10.0 mi WSW 3.5 mph - N/A   Clear
11:53 PM 28.9 °F 23.9 °F 28.0 °F 96% 30.32 in 8.0 mi SW 4.6 mph - N/A   Clear